Year,Month,Day,Hour,Minute,Value (Times are PST for windgust in km/hr)
2019,02,10,00,00,9.60
2019,02,10,00,01,8.10
2019,02,10,00,02,8.10
2019,02,10,00,03,3.20
2019,02,10,00,04,3.20
2019,02,10,00,05,4.80
2019,02,10,00,06,8.10
2019,02,10,00,07,6.40
2019,02,10,00,08,6.40
2019,02,10,00,09,16.10
2019,02,10,00,10,3.20
2019,02,10,00,11,3.20
2019,02,10,00,12,1.60
2019,02,10,00,13,11.30
2019,02,10,00,14,6.40
2019,02,10,00,15,1.60
2019,02,10,00,16,9.60
2019,02,10,00,17,6.40
2019,02,10,00,18,3.20
2019,02,10,00,19,3.20
2019,02,10,00,20,3.20
2019,02,10,00,21,9.60
2019,02,10,00,22,8.10
2019,02,10,00,23,6.40
2019,02,10,00,24,6.40
2019,02,10,00,25,4.80
2019,02,10,00,26,3.20
2019,02,10,00,27,11.30
2019,02,10,00,28,19.30
2019,02,10,00,29,12.90
2019,02,10,00,30,14.50
2019,02,10,00,31,6.40
2019,02,10,00,32,11.30
2019,02,10,00,33,16.10
2019,02,10,00,34,14.50
2019,02,10,00,35,20.90
2019,02,10,00,36,12.90
2019,02,10,00,37,17.70
2019,02,10,00,38,14.50
2019,02,10,00,39,16.10
2019,02,10,00,40,16.10
2019,02,10,00,41,20.90
2019,02,10,00,42,16.10
2019,02,10,00,43,16.10
2019,02,10,00,44,11.30
2019,02,10,00,45,9.60
2019,02,10,00,46,14.50
2019,02,10,00,47,6.40
2019,02,10,00,48,1.60
2019,02,10,00,49,11.30
2019,02,10,00,50,9.60
2019,02,10,00,51,8.10
2019,02,10,00,52,6.40
2019,02,10,00,53,6.40
2019,02,10,00,54,8.10
2019,02,10,00,55,14.50
2019,02,10,00,56,19.30
2019,02,10,00,57,14.50
2019,02,10,00,58,16.10
2019,02,10,00,59,11.30
2019,02,10,01,00,11.30
2019,02,10,01,01,6.40
2019,02,10,01,02,8.10
2019,02,10,01,03,9.60
2019,02,10,01,04,4.80
2019,02,10,01,05,8.10
2019,02,10,01,06,14.50
2019,02,10,01,07,8.10
2019,02,10,01,08,4.80
2019,02,10,01,09,9.60
2019,02,10,01,10,11.30
2019,02,10,01,11,11.30
2019,02,10,01,12,9.60
2019,02,10,01,13,11.30
2019,02,10,01,14,9.60
2019,02,10,01,15,6.40
2019,02,10,01,16,6.40
2019,02,10,01,17,3.20
2019,02,10,01,18,3.20
2019,02,10,01,19,1.60
2019,02,10,01,20,9.60
2019,02,10,01,21,8.10
2019,02,10,01,22,6.40
2019,02,10,01,23,8.10
2019,02,10,01,24,6.40
2019,02,10,01,25,3.20
2019,02,10,01,26,3.20
2019,02,10,01,27,3.20
2019,02,10,01,28,1.60
2019,02,10,01,29,4.80
2019,02,10,01,30,8.10
2019,02,10,01,31,6.40
2019,02,10,01,32,4.80
2019,02,10,01,33,4.80
2019,02,10,01,34,3.20
2019,02,10,01,35,6.40
2019,02,10,01,36,4.80
2019,02,10,01,37,6.40
2019,02,10,01,38,4.80
2019,02,10,01,39,6.40
2019,02,10,01,40,3.20
2019,02,10,01,42,1.60
2019,02,10,01,43,4.80
2019,02,10,01,44,6.40
2019,02,10,01,45,4.80
2019,02,10,01,46,4.80
2019,02,10,01,47,3.20
2019,02,10,01,48,3.20
2019,02,10,01,49,1.60
2019,02,10,02,09,8.10
2019,02,10,02,10,8.10
2019,02,10,02,11,8.10
2019,02,10,02,12,4.80
2019,02,10,02,13,6.40
2019,02,10,02,14,6.40
2019,02,10,02,15,6.40
2019,02,10,02,16,4.80
2019,02,10,02,17,3.20
2019,02,10,02,18,3.20
2019,02,10,02,19,1.60
2019,02,10,02,20,4.80
2019,02,10,02,21,4.80
2019,02,10,02,22,4.80
2019,02,10,02,23,4.80
2019,02,10,02,24,6.40
2019,02,10,02,25,9.60
2019,02,10,02,26,8.10
2019,02,10,02,27,3.20
2019,02,10,02,28,3.20
2019,02,10,02,29,1.60
2019,02,10,02,30,3.20
2019,02,10,02,31,1.60
2019,02,10,02,32,1.60
2019,02,10,02,33,1.60
2019,02,10,02,34,1.60
2019,02,10,02,35,1.60
2019,02,10,02,36,3.20
2019,02,10,02,37,4.80
2019,02,10,02,38,3.20
2019,02,10,02,39,4.80
2019,02,10,02,40,4.80
2019,02,10,02,41,6.40
2019,02,10,02,42,4.80
2019,02,10,02,43,8.10
2019,02,10,02,44,8.10
2019,02,10,02,45,8.10
2019,02,10,02,46,8.10
2019,02,10,02,47,4.80
2019,02,10,02,48,4.80
2019,02,10,02,49,3.20
2019,02,10,02,54,3.20
2019,02,10,02,55,4.80
2019,02,10,02,56,3.20
2019,02,10,02,57,1.60
2019,02,10,03,01,1.60
2019,02,10,03,05,3.20
2019,02,10,03,06,3.20
2019,02,10,03,07,3.20
2019,02,10,03,08,3.20
2019,02,10,03,09,4.80
2019,02,10,03,10,4.80
2019,02,10,03,11,4.80
2019,02,10,03,12,6.40
2019,02,10,03,13,4.80
2019,02,10,03,14,3.20
2019,02,10,03,15,1.60
2019,02,10,03,21,3.20
2019,02,10,03,22,1.60
2019,02,10,03,23,3.20
2019,02,10,03,24,1.60
2019,02,10,03,27,1.60
2019,02,10,03,28,1.60
2019,02,10,03,33,6.40
2019,02,10,03,34,1.60
2019,02,10,03,40,1.60
2019,02,10,03,41,1.60
2019,02,10,03,42,1.60
2019,02,10,03,43,1.60
2019,02,10,03,44,1.60
2019,02,10,03,45,1.60
2019,02,10,03,46,3.20
2019,02,10,03,47,1.60
2019,02,10,03,55,3.20
2019,02,10,03,56,3.20
2019,02,10,03,57,3.20
2019,02,10,03,58,1.60
2019,02,10,04,16,4.80
2019,02,10,04,17,4.80
2019,02,10,04,18,4.80
2019,02,10,04,19,3.20
2019,02,10,04,20,4.80
2019,02,10,04,21,4.80
2019,02,10,04,22,4.80
2019,02,10,04,23,6.40
2019,02,10,04,24,4.80
2019,02,10,04,25,4.80
2019,02,10,04,26,6.40
2019,02,10,04,27,6.40
2019,02,10,04,28,4.80
2019,02,10,04,29,4.80
2019,02,10,04,30,8.10
2019,02,10,04,31,6.40
2019,02,10,04,32,8.10
2019,02,10,04,33,8.10
2019,02,10,04,34,9.60
2019,02,10,04,35,8.10
2019,02,10,04,36,6.40
2019,02,10,04,37,9.60
2019,02,10,04,38,6.40
2019,02,10,04,39,6.40
2019,02,10,04,40,6.40
2019,02,10,04,41,4.80
2019,02,10,04,42,4.80
2019,02,10,04,43,1.60
2019,02,10,04,45,4.80
2019,02,10,04,46,4.80
2019,02,10,04,47,3.20
2019,02,10,04,48,1.60
2019,02,10,04,49,3.20
2019,02,10,04,50,4.80
2019,02,10,04,51,3.20
2019,02,10,04,52,3.20
2019,02,10,04,53,3.20
2019,02,10,04,54,4.80
2019,02,10,04,55,4.80
2019,02,10,04,56,6.40
2019,02,10,04,57,8.10
2019,02,10,04,58,6.40
2019,02,10,04,59,6.40
2019,02,10,05,00,6.40
2019,02,10,05,01,8.10
2019,02,10,05,02,4.80
2019,02,10,05,03,4.80
2019,02,10,05,04,4.80
2019,02,10,05,05,4.80
2019,02,10,05,06,4.80
2019,02,10,05,07,4.80
2019,02,10,05,08,4.80
2019,02,10,05,09,6.40
2019,02,10,05,10,4.80
2019,02,10,05,11,4.80
2019,02,10,05,12,6.40
2019,02,10,05,13,4.80
2019,02,10,05,14,4.80
2019,02,10,05,15,4.80
2019,02,10,05,16,4.80
2019,02,10,05,17,4.80
2019,02,10,05,18,4.80
2019,02,10,05,19,3.20
2019,02,10,05,20,3.20
2019,02,10,05,21,1.60
2019,02,10,05,22,1.60
2019,02,10,05,23,1.60
2019,02,10,05,24,3.20
2019,02,10,05,25,6.40
2019,02,10,05,26,4.80
2019,02,10,05,27,4.80
2019,02,10,05,28,4.80
2019,02,10,05,29,3.20
2019,02,10,05,59,4.80
2019,02,10,06,00,4.80
2019,02,10,06,01,4.80
2019,02,10,06,02,4.80
2019,02,10,06,03,6.40
2019,02,10,06,04,4.80
2019,02,10,06,05,6.40
2019,02,10,06,06,4.80
2019,02,10,06,07,6.40
2019,02,10,06,08,4.80
2019,02,10,06,09,6.40
2019,02,10,06,10,6.40
2019,02,10,06,11,4.80
2019,02,10,06,12,4.80
2019,02,10,06,13,4.80
2019,02,10,06,14,3.20
2019,02,10,06,15,3.20
2019,02,10,06,16,3.20
2019,02,10,06,17,4.80
2019,02,10,06,18,4.80
2019,02,10,06,19,3.20
2019,02,10,06,20,3.20
2019,02,10,06,22,1.60
2019,02,10,06,23,3.20
2019,02,10,06,24,1.60
2019,02,10,06,26,3.20
2019,02,10,06,27,1.60
2019,02,10,06,29,3.20
2019,02,10,06,30,4.80
2019,02,10,06,31,3.20
2019,02,10,06,32,3.20
2019,02,10,06,33,3.20
2019,02,10,06,34,3.20
2019,02,10,06,35,4.80
2019,02,10,06,36,4.80
2019,02,10,06,37,6.40
2019,02,10,06,38,4.80
2019,02,10,06,39,4.80
2019,02,10,06,40,4.80
2019,02,10,06,41,6.40
2019,02,10,06,42,4.80
2019,02,10,06,43,4.80
2019,02,10,06,44,4.80
2019,02,10,06,45,3.20
2019,02,10,06,46,4.80
2019,02,10,06,47,4.80
2019,02,10,06,48,6.40
2019,02,10,06,49,8.10
2019,02,10,06,50,6.40
2019,02,10,06,51,6.40
2019,02,10,06,52,9.60
2019,02,10,06,53,6.40
2019,02,10,06,54,6.40
2019,02,10,06,55,6.40
2019,02,10,06,56,6.40
2019,02,10,06,57,8.10
2019,02,10,06,58,6.40
2019,02,10,06,59,6.40
2019,02,10,07,00,8.10
2019,02,10,07,01,6.40
2019,02,10,07,02,6.40
2019,02,10,07,03,6.40
2019,02,10,07,04,6.40
2019,02,10,07,05,8.10
2019,02,10,07,06,6.40
2019,02,10,07,07,8.10
2019,02,10,07,08,6.40
2019,02,10,07,09,8.10
2019,02,10,07,10,8.10
2019,02,10,07,11,6.40
2019,02,10,07,12,6.40
2019,02,10,07,13,6.40
2019,02,10,07,14,6.40
2019,02,10,07,15,8.10
2019,02,10,07,16,8.10
2019,02,10,07,17,6.40
2019,02,10,07,18,8.10
2019,02,10,07,19,6.40
2019,02,10,07,20,4.80
2019,02,10,07,21,3.20
2019,02,10,07,22,3.20
2019,02,10,07,23,1.60
2019,02,10,07,56,4.80
2019,02,10,07,57,4.80
2019,02,10,07,58,6.40
2019,02,10,07,59,8.10
2019,02,10,08,00,8.10
2019,02,10,08,01,6.40
2019,02,10,08,02,4.80
2019,02,10,08,03,4.80
2019,02,10,08,04,4.80
2019,02,10,08,05,3.20
2019,02,10,08,06,1.60
2019,02,10,08,07,3.20
2019,02,10,08,08,1.60
2019,02,10,08,13,3.20
2019,02,10,08,14,3.20
2019,02,10,08,15,4.80
2019,02,10,08,16,3.20
2019,02,10,08,17,3.20
2019,02,10,08,18,3.20
2019,02,10,08,19,3.20
2019,02,10,08,20,4.80
2019,02,10,08,21,4.80
2019,02,10,08,22,3.20
2019,02,10,08,23,4.80
2019,02,10,08,24,4.80
2019,02,10,08,25,4.80
2019,02,10,08,26,3.20
2019,02,10,08,27,1.60
2019,02,10,08,28,3.20
2019,02,10,08,29,4.80
2019,02,10,08,30,3.20
2019,02,10,08,31,3.20
2019,02,10,08,32,4.80
2019,02,10,08,33,3.20
2019,02,10,08,34,4.80
2019,02,10,08,35,3.20
2019,02,10,08,36,4.80
2019,02,10,08,37,6.40
2019,02,10,08,38,6.40
2019,02,10,08,39,6.40
2019,02,10,08,40,6.40
2019,02,10,08,41,6.40
2019,02,10,08,42,6.40
2019,02,10,08,43,6.40
2019,02,10,08,44,6.40
2019,02,10,08,45,4.80
2019,02,10,08,46,6.40
2019,02,10,08,47,6.40
2019,02,10,08,48,6.40
2019,02,10,08,49,6.40
2019,02,10,08,50,6.40
2019,02,10,08,51,4.80
2019,02,10,08,52,6.40
2019,02,10,08,53,8.10
2019,02,10,08,54,8.10
2019,02,10,08,55,6.40
2019,02,10,08,56,6.40
2019,02,10,08,57,4.80
2019,02,10,08,58,4.80
2019,02,10,08,59,4.80
2019,02,10,09,00,4.80
2019,02,10,09,01,4.80
2019,02,10,09,02,3.20
2019,02,10,09,03,3.20
2019,02,10,09,04,3.20
2019,02,10,09,05,3.20
2019,02,10,09,06,4.80
2019,02,10,09,07,3.20
2019,02,10,09,08,4.80
2019,02,10,09,09,4.80
2019,02,10,09,10,4.80
2019,02,10,09,11,4.80
2019,02,10,09,12,3.20
2019,02,10,09,13,1.60
2019,02,10,09,14,3.20
2019,02,10,09,17,4.80
2019,02,10,09,18,4.80
2019,02,10,09,19,1.60
2019,02,10,09,23,3.20
2019,02,10,09,24,4.80
2019,02,10,09,25,3.20
2019,02,10,09,26,6.40
2019,02,10,09,27,6.40
2019,02,10,09,28,4.80
2019,02,10,09,30,3.20
2019,02,10,09,32,1.60
2019,02,10,09,33,1.60
2019,02,10,09,34,3.20
2019,02,10,09,35,6.40
2019,02,10,09,36,3.20
2019,02,10,09,37,3.20
2019,02,10,09,38,4.80
2019,02,10,09,39,3.20
2019,02,10,09,40,1.60
2019,02,10,09,41,3.20
2019,02,10,09,42,3.20
2019,02,10,09,43,1.60
2019,02,10,09,47,3.20
2019,02,10,09,48,1.60
2019,02,10,09,52,3.20
2019,02,10,09,53,3.20
2019,02,10,09,54,4.80
2019,02,10,09,55,1.60
2019,02,10,09,56,3.20
2019,02,10,09,57,3.20
2019,02,10,09,58,3.20
2019,02,10,09,59,3.20
2019,02,10,10,00,3.20
2019,02,10,10,01,4.80
2019,02,10,10,02,4.80
2019,02,10,10,03,3.20
2019,02,10,10,04,4.80
2019,02,10,10,05,1.60
2019,02,10,10,07,3.20
2019,02,10,10,08,3.20
2019,02,10,10,09,1.60
2019,02,10,10,11,1.60
2019,02,10,10,12,1.60
2019,02,10,10,13,1.60
2019,02,10,10,20,3.20
2019,02,10,10,21,3.20
2019,02,10,10,22,4.80
2019,02,10,10,23,3.20
2019,02,10,10,24,1.60
2019,02,10,10,25,3.20
2019,02,10,10,26,3.20
2019,02,10,10,27,1.60
2019,02,10,10,28,1.60
2019,02,10,10,29,1.60
2019,02,10,10,30,3.20
2019,02,10,10,31,3.20
2019,02,10,10,34,3.20
2019,02,10,10,35,3.20
2019,02,10,10,36,3.20
2019,02,10,10,38,1.60
2019,02,10,10,39,3.20
2019,02,10,10,40,1.60
2019,02,10,10,41,1.60
2019,02,10,10,53,1.60
2019,02,10,10,54,1.60
2019,02,10,11,23,4.80
2019,02,10,11,24,4.80
2019,02,10,11,25,3.20
2019,02,10,11,26,1.60
2019,02,10,11,28,4.80
2019,02,10,11,29,6.40
2019,02,10,11,30,3.20
2019,02,10,11,31,1.60
2019,02,10,11,33,3.20
2019,02,10,11,34,8.10
2019,02,10,11,35,4.80
2019,02,10,11,36,1.60
2019,02,10,11,37,1.60
2019,02,10,11,38,1.60
2019,02,10,11,39,6.40
2019,02,10,11,40,4.80
2019,02,10,11,41,4.80
2019,02,10,11,42,3.20
2019,02,10,11,43,1.60
2019,02,10,11,44,3.20
2019,02,10,11,45,8.10
2019,02,10,11,46,16.10
2019,02,10,11,47,11.30
2019,02,10,11,48,9.60
2019,02,10,11,49,11.30
2019,02,10,11,50,8.10
2019,02,10,11,51,11.30
2019,02,10,11,52,9.60
2019,02,10,11,53,9.60
2019,02,10,11,54,6.40
2019,02,10,11,55,8.10
2019,02,10,11,56,8.10
2019,02,10,11,57,8.10
2019,02,10,11,58,16.10
2019,02,10,11,59,12.90
2019,02,10,12,00,4.80
2019,02,10,12,01,6.40
2019,02,10,12,02,6.40
2019,02,10,12,03,4.80
2019,02,10,12,04,14.50
2019,02,10,12,05,14.50
2019,02,10,12,06,12.90
2019,02,10,12,07,11.30
2019,02,10,12,08,8.10
2019,02,10,12,09,11.30
2019,02,10,12,10,14.50
2019,02,10,12,11,17.70
2019,02,10,12,12,12.90
2019,02,10,12,13,11.30
2019,02,10,12,14,12.90
2019,02,10,12,15,14.50
2019,02,10,12,16,11.30
2019,02,10,12,17,16.10
2019,02,10,12,18,19.30
2019,02,10,12,19,9.60
2019,02,10,12,20,16.10
2019,02,10,12,21,17.70
2019,02,10,12,22,14.50
2019,02,10,12,23,19.30
2019,02,10,12,24,14.50
2019,02,10,12,25,16.10
2019,02,10,12,26,9.60
2019,02,10,12,27,12.90
2019,02,10,12,28,16.10
2019,02,10,12,29,11.30
2019,02,10,12,30,9.60
2019,02,10,12,31,9.60
2019,02,10,12,32,11.30
2019,02,10,12,33,9.60
2019,02,10,12,34,8.10
2019,02,10,12,35,11.30
2019,02,10,12,36,17.70
2019,02,10,12,37,11.30
2019,02,10,12,38,16.10
2019,02,10,12,39,9.60
2019,02,10,12,40,14.50
2019,02,10,12,41,14.50
2019,02,10,12,42,16.10
2019,02,10,12,43,11.30
2019,02,10,12,44,9.60
2019,02,10,12,45,14.50
2019,02,10,12,46,19.30
2019,02,10,12,47,17.70
2019,02,10,12,48,17.70
2019,02,10,12,49,16.10
2019,02,10,12,50,4.80
2019,02,10,12,51,6.40
2019,02,10,12,52,16.10
2019,02,10,12,53,11.30
2019,02,10,12,54,17.70
2019,02,10,12,55,17.70
2019,02,10,12,56,17.70
2019,02,10,12,57,17.70
2019,02,10,12,58,17.70
2019,02,10,12,59,20.90
2019,02,10,13,00,14.50
2019,02,10,13,01,16.10
2019,02,10,13,02,17.70
2019,02,10,13,03,16.10
2019,02,10,13,04,11.30
2019,02,10,13,05,14.50
2019,02,10,13,06,11.30
2019,02,10,13,07,14.50
2019,02,10,13,08,14.50
2019,02,10,13,09,11.30
2019,02,10,13,10,9.60
2019,02,10,13,11,14.50
2019,02,10,13,12,9.60
2019,02,10,13,13,9.60
2019,02,10,13,14,11.30
2019,02,10,13,15,12.90
2019,02,10,13,16,8.10
2019,02,10,13,17,9.60
2019,02,10,13,18,11.30
2019,02,10,13,19,9.60
2019,02,10,13,20,9.60
2019,02,10,13,21,11.30
2019,02,10,13,22,11.30
2019,02,10,13,23,14.50
2019,02,10,13,24,11.30
2019,02,10,13,25,11.30
2019,02,10,13,26,11.30
2019,02,10,13,27,14.50
2019,02,10,13,28,16.10
2019,02,10,13,29,11.30
2019,02,10,13,30,11.30
2019,02,10,13,31,9.60
2019,02,10,13,32,11.30
2019,02,10,13,33,14.50
2019,02,10,13,34,16.10
2019,02,10,13,35,16.10
2019,02,10,13,36,19.30
2019,02,10,13,37,14.50
2019,02,10,13,38,14.50
2019,02,10,13,39,14.50
2019,02,10,13,40,16.10
2019,02,10,13,41,17.70
2019,02,10,13,42,14.50
2019,02,10,13,43,17.70
2019,02,10,13,44,14.50
2019,02,10,13,45,19.30
2019,02,10,13,46,17.70
2019,02,10,13,47,9.60
2019,02,10,13,48,16.10
2019,02,10,13,49,14.50
2019,02,10,13,50,11.30
2019,02,10,13,51,24.20
2019,02,10,13,52,20.90
2019,02,10,13,53,12.90
2019,02,10,13,54,16.10
2019,02,10,13,55,16.10
2019,02,10,13,56,8.10
2019,02,10,13,57,9.60
2019,02,10,13,58,8.10
2019,02,10,13,59,11.30
2019,02,10,14,00,16.10
2019,02,10,14,01,14.50
2019,02,10,14,02,14.50
2019,02,10,14,03,9.60
2019,02,10,14,04,19.30
2019,02,10,14,05,19.30
2019,02,10,14,06,19.30
2019,02,10,14,07,16.10
2019,02,10,14,08,14.50
2019,02,10,14,09,6.40
2019,02,10,14,10,9.60
2019,02,10,14,11,14.50
2019,02,10,14,12,19.30
2019,02,10,14,13,14.50
2019,02,10,14,14,16.10
2019,02,10,14,15,19.30
2019,02,10,14,16,24.20
2019,02,10,14,17,19.30
2019,02,10,14,18,19.30
2019,02,10,14,19,27.40
2019,02,10,14,20,20.90
2019,02,10,14,21,19.30
2019,02,10,14,22,16.10
2019,02,10,14,23,16.10
2019,02,10,14,24,17.70
2019,02,10,14,25,19.30
2019,02,10,14,26,19.30
2019,02,10,14,27,14.50
2019,02,10,14,28,11.30
2019,02,10,14,29,14.50
2019,02,10,14,30,11.30
2019,02,10,14,31,17.70
2019,02,10,14,32,11.30
2019,02,10,14,33,20.90
2019,02,10,14,34,16.10
2019,02,10,14,35,16.10
2019,02,10,14,36,20.90
2019,02,10,14,37,25.70
2019,02,10,14,38,14.50
2019,02,10,14,39,22.50
2019,02,10,14,40,24.20
2019,02,10,14,41,20.90
2019,02,10,14,42,20.90
2019,02,10,14,43,16.10
2019,02,10,14,44,25.70
2019,02,10,14,45,27.40
2019,02,10,14,46,19.30
2019,02,10,14,47,20.90
2019,02,10,14,48,32.20
2019,02,10,14,49,20.90
2019,02,10,14,50,27.40
2019,02,10,14,51,19.30
2019,02,10,14,52,22.50
2019,02,10,14,53,17.70
2019,02,10,14,54,24.20
2019,02,10,14,55,22.50
2019,02,10,14,56,25.70
2019,02,10,14,57,25.70
2019,02,10,14,58,19.30
2019,02,10,14,59,16.10
2019,02,10,15,00,20.90
2019,02,10,15,01,16.10
2019,02,10,15,02,17.70
2019,02,10,15,03,17.70
2019,02,10,15,04,19.30
2019,02,10,15,05,27.40
2019,02,10,15,06,20.90
2019,02,10,15,07,17.70
2019,02,10,15,08,16.10
2019,02,10,15,09,19.30
2019,02,10,15,10,24.20
2019,02,10,15,11,11.30
2019,02,10,15,12,20.90
2019,02,10,15,13,17.70
2019,02,10,15,14,11.30
2019,02,10,15,15,19.30
2019,02,10,15,16,20.90
2019,02,10,15,17,17.70
2019,02,10,15,18,17.70
2019,02,10,15,19,20.90
2019,02,10,15,20,17.70
2019,02,10,15,21,27.40
2019,02,10,15,22,22.50
2019,02,10,15,23,25.70
2019,02,10,15,24,19.30
2019,02,10,15,25,11.30
2019,02,10,15,26,12.90
2019,02,10,15,27,11.30
2019,02,10,15,28,11.30
2019,02,10,15,29,16.10
2019,02,10,15,30,9.60
2019,02,10,15,31,12.90
2019,02,10,15,32,11.30
2019,02,10,15,33,17.70
2019,02,10,15,34,17.70
2019,02,10,15,35,14.50
2019,02,10,15,36,9.60
2019,02,10,15,37,9.60
2019,02,10,15,38,12.90
2019,02,10,15,39,11.30
2019,02,10,15,40,6.40
2019,02,10,15,41,9.60
2019,02,10,15,42,6.40
2019,02,10,15,43,9.60
2019,02,10,15,44,6.40
2019,02,10,15,45,11.30
2019,02,10,15,46,17.70
2019,02,10,15,47,16.10
2019,02,10,15,48,9.60
2019,02,10,15,49,9.60
2019,02,10,15,50,14.50
2019,02,10,15,51,12.90
2019,02,10,15,52,11.30
2019,02,10,15,53,17.70
2019,02,10,15,54,17.70
2019,02,10,15,55,17.70
2019,02,10,15,56,20.90
2019,02,10,15,57,16.10
2019,02,10,15,58,16.10
2019,02,10,15,59,16.10
2019,02,10,16,00,8.10
2019,02,10,16,01,11.30
2019,02,10,16,02,12.90
2019,02,10,16,03,11.30
2019,02,10,16,04,17.70
2019,02,10,16,05,19.30
2019,02,10,16,06,11.30
2019,02,10,16,07,16.10
2019,02,10,16,08,22.50
2019,02,10,16,09,16.10
2019,02,10,16,10,17.70
2019,02,10,16,11,12.90
2019,02,10,16,12,8.10
2019,02,10,16,13,17.70
2019,02,10,16,14,11.30
2019,02,10,16,15,16.10
2019,02,10,16,16,17.70
2019,02,10,16,17,19.30
2019,02,10,16,18,9.60
2019,02,10,16,19,11.30
2019,02,10,16,20,6.40
2019,02,10,16,21,9.60
2019,02,10,16,22,14.50
2019,02,10,16,23,17.70
2019,02,10,16,24,16.10
2019,02,10,16,25,14.50
2019,02,10,16,26,14.50
2019,02,10,16,27,11.30
2019,02,10,16,28,6.40
2019,02,10,16,29,16.10
2019,02,10,16,30,11.30
2019,02,10,16,31,8.10
2019,02,10,16,32,14.50
2019,02,10,16,35,4.80
2019,02,10,16,36,4.80
2019,02,10,16,37,14.50
2019,02,10,16,38,6.40
2019,02,10,16,39,14.50
2019,02,10,16,40,14.50
2019,02,10,16,41,11.30
2019,02,10,16,42,9.60
2019,02,10,16,43,11.30
2019,02,10,16,44,9.60
2019,02,10,16,45,8.10
2019,02,10,16,46,8.10
2019,02,10,16,47,20.90
2019,02,10,16,48,19.30
2019,02,10,16,49,11.30
2019,02,10,16,50,16.10
2019,02,10,16,51,14.50
2019,02,10,16,52,16.10
2019,02,10,16,53,12.90
2019,02,10,16,54,11.30
2019,02,10,16,55,16.10
2019,02,10,16,56,11.30
2019,02,10,16,57,8.10
2019,02,10,16,58,8.10
2019,02,10,16,59,4.80
2019,02,10,17,00,1.60
2019,02,10,17,01,4.80
2019,02,10,17,02,4.80
2019,02,10,17,03,16.10
2019,02,10,17,04,14.50
2019,02,10,17,05,9.60
2019,02,10,17,06,9.60
2019,02,10,17,07,4.80
2019,02,10,17,08,9.60
2019,02,10,17,09,6.40
2019,02,10,17,10,8.10
2019,02,10,17,11,6.40
2019,02,10,17,12,6.40
2019,02,10,17,13,4.80
2019,02,10,17,14,6.40
2019,02,10,17,15,4.80
2019,02,10,17,16,6.40
2019,02,10,17,17,1.60
2019,02,10,17,18,6.40
2019,02,10,17,19,9.60
2019,02,10,17,20,1.60
2019,02,10,18,15,6.40
2019,02,10,18,16,6.40
2019,02,10,18,17,6.40
2019,02,10,18,18,16.10
2019,02,10,18,19,8.10
2019,02,10,18,20,11.30
2019,02,10,18,21,9.60
2019,02,10,18,22,8.10
2019,02,10,18,23,17.70
2019,02,10,18,24,11.30
2019,02,10,18,25,16.10
2019,02,10,18,26,6.40
2019,02,10,18,27,6.40
2019,02,10,18,28,6.40
2019,02,10,18,29,14.50
2019,02,10,18,30,11.30
2019,02,10,18,31,9.60
2019,02,10,18,32,11.30
2019,02,10,18,33,12.90
2019,02,10,18,34,11.30
2019,02,10,18,35,11.30
2019,02,10,18,36,14.50
2019,02,10,18,37,8.10
2019,02,10,18,38,16.10
2019,02,10,18,39,14.50
2019,02,10,18,40,16.10
2019,02,10,18,41,9.60
2019,02,10,18,42,8.10
2019,02,10,18,43,9.60
2019,02,10,18,44,20.90
2019,02,10,18,45,8.10
2019,02,10,18,46,11.30
2019,02,10,18,47,16.10
2019,02,10,18,48,8.10
2019,02,10,18,49,19.30
2019,02,10,18,50,14.50
2019,02,10,18,51,9.60
2019,02,10,18,52,14.50
2019,02,10,18,53,12.90
2019,02,10,18,54,16.10
2019,02,10,18,55,17.70
2019,02,10,18,56,16.10
2019,02,10,18,57,17.70
2019,02,10,18,58,14.50
2019,02,10,18,59,11.30
2019,02,10,19,00,8.10
2019,02,10,19,01,9.60
2019,02,10,19,02,9.60
2019,02,10,19,03,9.60
2019,02,10,19,04,9.60
2019,02,10,19,05,11.30
2019,02,10,19,06,11.30
2019,02,10,19,07,11.30
2019,02,10,19,08,14.50
2019,02,10,19,09,20.90
2019,02,10,19,10,17.70
2019,02,10,19,11,20.90
2019,02,10,19,12,9.60
2019,02,10,19,13,14.50
2019,02,10,19,14,9.60
2019,02,10,19,15,6.40
2019,02,10,19,16,11.30
2019,02,10,19,17,22.50
2019,02,10,19,18,16.10
2019,02,10,19,19,8.10
2019,02,10,19,20,12.90
2019,02,10,19,21,14.50
2019,02,10,19,22,12.90
2019,02,10,19,23,6.40
2019,02,10,19,24,8.10
2019,02,10,19,25,12.90
2019,02,10,19,26,8.10
2019,02,10,19,27,14.50
2019,02,10,19,28,11.30
2019,02,10,19,29,14.50
2019,02,10,19,30,14.50
2019,02,10,19,31,9.60
2019,02,10,19,32,14.50
2019,02,10,19,33,14.50
2019,02,10,19,34,11.30
2019,02,10,19,35,11.30
2019,02,10,19,36,11.30
2019,02,10,19,37,8.10
2019,02,10,19,38,9.60
2019,02,10,19,39,4.80
2019,02,10,19,40,11.30
2019,02,10,19,41,11.30
2019,02,10,19,42,11.30
2019,02,10,19,43,8.10
2019,02,10,19,44,11.30
2019,02,10,19,45,9.60
2019,02,10,19,46,9.60
2019,02,10,19,47,9.60
2019,02,10,19,48,9.60
2019,02,10,19,49,12.90
2019,02,10,19,50,8.10
2019,02,10,19,51,9.60
2019,02,10,19,52,8.10
2019,02,10,19,53,11.30
2019,02,10,19,54,11.30
2019,02,10,19,55,9.60
2019,02,10,19,56,6.40
2019,02,10,19,57,4.80
2019,02,10,19,58,11.30
2019,02,10,19,59,12.90
2019,02,10,20,00,16.10
2019,02,10,20,01,9.60
2019,02,10,20,02,6.40
2019,02,10,20,03,11.30
2019,02,10,20,04,6.40
2019,02,10,20,05,6.40
2019,02,10,20,06,9.60
2019,02,10,20,07,16.10
2019,02,10,20,08,3.20
2019,02,10,20,09,16.10
2019,02,10,20,10,17.70
2019,02,10,20,12,9.60
2019,02,10,20,13,8.10
2019,02,10,20,14,11.30
2019,02,10,20,15,6.40
2019,02,10,20,16,6.40
2019,02,10,20,17,6.40
2019,02,10,20,18,6.40
2019,02,10,20,19,9.60
2019,02,10,20,20,16.10
2019,02,10,20,21,3.20
2019,02,10,20,22,8.10
2019,02,10,20,23,4.80
2019,02,10,20,24,6.40
2019,02,10,20,25,9.60
2019,02,10,20,26,6.40
2019,02,10,20,27,3.20
2019,02,10,20,28,3.20
2019,02,10,20,29,8.10
2019,02,10,20,30,9.60
2019,02,10,20,31,11.30
2019,02,10,20,32,11.30
2019,02,10,20,33,9.60
2019,02,10,20,34,6.40
2019,02,10,20,35,11.30
2019,02,10,20,36,4.80
2019,02,10,20,38,9.60
2019,02,10,20,39,4.80
2019,02,10,20,40,8.10
2019,02,10,20,41,11.30
2019,02,10,20,42,6.40
2019,02,10,20,43,12.90
2019,02,10,20,44,3.20
2019,02,10,20,45,4.80
2019,02,10,20,46,3.20
2019,02,10,20,47,4.80
2019,02,10,20,48,6.40
2019,02,10,20,49,6.40
2019,02,10,20,50,6.40
2019,02,10,20,51,8.10
2019,02,10,20,52,6.40
2019,02,10,20,53,4.80
2019,02,10,20,54,6.40
2019,02,10,20,55,6.40
2019,02,10,20,56,9.60
2019,02,10,20,57,8.10
2019,02,10,20,58,6.40
2019,02,10,20,59,11.30
2019,02,10,21,00,9.60
2019,02,10,21,01,8.10
2019,02,10,21,02,6.40
2019,02,10,21,04,8.10
2019,02,10,21,05,11.30
2019,02,10,21,06,9.60
2019,02,10,21,07,9.60
2019,02,10,21,08,6.40
2019,02,10,21,09,4.80
2019,02,10,21,10,11.30
2019,02,10,21,11,8.10
2019,02,10,21,12,4.80
2019,02,10,21,13,6.40
2019,02,10,21,14,6.40
2019,02,10,21,15,6.40
2019,02,10,21,16,9.60
2019,02,10,21,17,6.40
2019,02,10,21,18,9.60
2019,02,10,21,19,6.40
2019,02,10,21,20,6.40
2019,02,10,21,21,9.60
2019,02,10,21,22,1.60
2019,02,10,21,24,6.40
2019,02,10,21,25,6.40
2019,02,10,21,26,8.10
2019,02,10,21,30,9.60
2019,02,10,21,31,1.60
2019,02,10,21,32,6.40
2019,02,10,21,33,8.10
2019,02,10,21,34,6.40
2019,02,10,21,35,1.60
2019,02,10,21,36,8.10
2019,02,10,21,37,8.10
2019,02,10,21,38,8.10
2019,02,10,21,39,6.40
2019,02,10,21,41,4.80
2019,02,10,21,42,1.60
2019,02,10,21,46,8.10
2019,02,10,21,47,8.10
2019,02,10,21,54,4.80
2019,02,10,21,55,8.10
2019,02,10,21,56,6.40
2019,02,10,21,57,4.80
2019,02,10,21,58,1.60
2019,02,10,21,59,8.10
2019,02,10,22,00,6.40
2019,02,10,22,01,3.20
2019,02,10,22,02,1.60
2019,02,10,22,03,6.40
2019,02,10,22,04,4.80
2019,02,10,22,05,4.80
2019,02,10,22,06,8.10
2019,02,10,22,07,4.80
2019,02,10,22,08,6.40
2019,02,10,23,09,3.20
2019,02,10,23,10,4.80
2019,02,10,23,12,6.40
2019,02,10,23,13,4.80
2019,02,10,23,14,3.20
2019,02,10,23,15,6.40
2019,02,10,23,16,1.60
2019,02,10,23,22,11.30
2019,02,10,23,23,8.10
2019,02,10,23,26,3.20
2019,02,10,23,27,6.40
2019,02,10,23,28,1.60
2019,02,10,23,29,8.10
2019,02,10,23,30,1.60
2019,02,10,23,35,6.40
2019,02,10,23,36,8.10
2019,02,10,23,37,1.60
2019,02,10,23,42,3.20
2019,02,10,23,43,1.60